#timestamp,LO_Frequency,Hit,StdDev 
1562011215.5,286047004.3,P
1562011235.4,286047001.5,N
1562011255.2,286047003.7,P
1562011275.0,286047003.2,Y
1562011275.9,286047003.2,P
1562011295.8,286046998.4,P
1562011315.6,286047002.7,N
1562011335.5,286047002.4,N
1562011355.3,286047004.0,N
1562011375.1,286047003.8,N
1562011395.9,286047003.5,N
1562011415.7,286047003.5,N
1562011435.6,286047003.7,N
1562011455.4,286047004.8,Y
1562011475.2,286047004.3,P
1562011495.1,286047003.0,P
1562011496.0,286047003.0,P
1562011515.8,286047003.3,Y
1562011535.7,286046999.7,P
1562011555.5,286047002.4,N
1562011575.3,286047000.3,N
1562011595.2,286046999.1,N
1562011615.9,286046995.7,N
1562011635.7,286046997.1,N
1562011655.6,286046998.9,N
1562011675.4,286047000.5,N
1562011695.3,286047002.0,N
1562011715.1,286046999.8,N
1562011716.0,286046999.8,N
1562011735.8,286047000.2,N
1562011755.7,286047000.5,N
1562011775.5,286047002.2,N
1562011795.3,286047002.9,N
1562011815.2,286047003.1,N
1562011835.0,286047005.3,N
1562011835.9,286047005.3,N
1562011855.8,286047004.3,N
1562011875.6,286047003.5,N
1562011895.4,286047003.1,N
1562011915.3,286047003.3,N
1562011935.1,286047003.3,N
1562011955.8,286047005.4,N
1562011975.7,286047004.1,N
1562011995.5,286047005.7,N
1562012015.4,286047003.0,N
1562012035.2,286047006.0,N
1562012055.0,286047003.3,N
1562012055.9,286047003.3,N
1562012075.8,286047005.6,N
1562012095.6,286047004.9,N
1562012115.5,286047005.3,N
1562012135.3,286047004.8,N
1562012155.1,286047003.8,N
1562012175.9,286047003.1,N
1562012195.7,286047001.4,N
1562012215.5,286047001.3,N
1562012235.4,286047004.5,N
1562012255.2,286047007.4,Y
1562012275.1,286047001.8,P
1562012276.0,286047001.8,N
1562012295.8,286047002.0,N
1562012315.7,286047002.1,Y
1562012335.5,286047000.2,P
1562012355.3,286047000.2,N
1562012375.2,286047001.6,N
1562012395.0,286047004.2,Y
1562012395.9,286047004.2,P
1562012415.7,286047002.5,N
1562012435.6,286047002.3,N
1562012455.4,286047001.2,N
1562012475.3,286047002.7,N
1562012495.1,286047001.8,N
1562012496.0,286047001.8,N
1562012515.8,286047002.7,N
1562012535.7,286047000.2,N
1562012555.5,286046998.2,N
1562012575.3,286047002.6,N
1562012595.2,286047000.1,N
1562012615.0,286047000.5,N
1562012615.9,286047000.5,N
1562012635.8,286047005.7,Y
1562012655.6,286047004.4,P
1562012675.4,286047005.9,P
1562012695.3,286047001.9,N
1562012715.1,286047005.3,N
1562012735.9,286047003.3,N
1562012755.7,286047001.4,N
1562012775.5,286047003.0,N
1562012795.4,286047005.5,Y
1562012815.2,286047002.0,P
1562012835.0,286047002.5,P
1562012835.9,286047002.5,P
1562012855.8,286047002.4,Y
1562012875.6,286046998.5,P
1562012895.5,286047000.2,N
1562012915.3,286047000.6,N
1562012935.1,286047001.1,N
1562012955.9,286047001.1,N
1562012975.7,286047001.0,N
1562012995.6,286047002.6,N
1562013015.4,286047000.0,N
1562013035.2,286047002.5,N
1562013055.1,286046999.9,N
1562013056.0,286046999.9,N
1562013075.8,286047000.6,N
1562013095.6,286047001.3,N
1562013115.5,286046998.2,N
1562013135.3,286047001.1,N
1562013155.1,286047000.6,N
1562013175.9,286046999.8,N
1562013195.7,286047001.2,N
1562013215.6,286047000.6,N
1562013235.4,286047002.1,N
1562013255.2,286046999.8,N
1562013275.1,286047002.4,N
1562013276.0,286047002.4,N
1562013295.8,286047000.3,N
1562013315.6,286046999.0,N
1562013335.5,286047000.3,N
1562013355.3,286047000.9,N
1562013375.2,286047001.1,N
1562013395.9,286047000.2,N
1562013415.7,286047002.0,N
1562013435.6,286047002.2,N
1562013455.4,286047004.1,Y
1562013475.3,286047002.0,P
1562013495.1,286047002.4,P
1562013496.0,286047002.4,P
1562013515.8,286047001.8,N
1562013535.7,286047003.0,Y
1562013555.5,286047003.3,P
1562013575.4,286047003.0,P
1562013595.2,286047003.3,P
1562013615.0,286047004.2,Y
1562013615.9,286047004.2,P
1562013635.8,286047002.8,P
1562013655.6,286046999.9,N
1562013675.4,286047002.5,N
1562013695.3,286047002.2,N
1562013715.1,286047000.9,N
1562013735.9,286046998.1,N
1562013755.7,286047001.2,N
1562013775.5,286047004.4,N
1562013795.4,286046998.5,N
1562013815.2,286046998.8,N
1562013835.0,286046999.2,N
1562013836.0,286046999.2,N
1562013855.8,286047000.9,N
1562013875.6,286046998.1,N
1562013895.5,286047000.9,N
1562013915.3,286047000.4,N
1562013935.1,286047000.4,N
1562013955.9,286047001.2,N
1562013975.7,286047001.2,N
1562013995.6,286046999.6,N
1562014015.4,286046998.7,N
1562014035.2,286047002.3,N
1562014055.1,286047002.3,N
1562014056.0,286047002.3,N
1562014075.8,286046998.9,N
1562014095.7,286046998.7,N
1562014115.5,286047004.0,N
1562014135.3,286047002.5,N
1562014155.2,286047001.6,N
1562014175.0,286047000.1,N
1562014175.9,286047000.1,N
1562014195.8,286047001.4,N
1562014215.6,286046998.8,N
1562014235.4,286046998.1,N
1562014255.3,286046997.0,N
1562014275.1,286046997.0,N
1562014295.8,286046995.0,N
1562014315.7,286046995.1,N
1562014335.5,286046996.3,N
1562014355.4,286046993.5,Y
1562014375.2,286046995.4,P
1562014395.0,286046997.9,N
1562014395.9,286046997.9,N
1562014415.8,286046997.8,N
1562014435.6,286046995.4,Y
1562014455.5,286046997.7,P
1562014475.3,286046996.1,P
1562014495.1,286046995.1,P
1562014515.9,286046995.4,Y
1562014535.7,286046998.7,P
1562014555.5,286046997.6,N
1562014575.4,286046996.6,P
1562014595.2,286046997.9,N
1562014615.1,286046995.9,Y
1562014616.0,286046995.9,P
1562014635.8,286046996.8,P
1562014655.6,286046999.5,N
1562014675.5,286046999.6,N
1562014695.3,286046997.1,N
1562014715.1,286046997.1,N
1562014735.9,286046999.2,N
1562014755.7,286046998.2,N
1562014775.6,286047001.3,N
1562014795.4,286047003.1,N
